Time,TemperatureF,DewpointF,PressureIn,WindDirection,WindDirectionDegrees,WindSpeedMPH,WindSpeedGustMPH,Humidity,HourlyPrecipIn,Conditions,Clouds,dailyrainin,SoftwareType,DateUTC
2013-04-09 00:14:00,40.0,29.4,30.20,NNW,347,0.3,0.4,66,0.00,,,0.00,WUHU216HW,2013-04-09 04:14:00,
2013-04-09 00:29:00,40.0,29.8,30.20,NW,315,0.5,0.9,67,0.00,,,0.00,WUHU216HW,2013-04-09 04:29:00,
2013-04-09 00:44:00,40.0,29.8,30.19,NW,315,0.2,0.2,67,0.00,,,0.00,WUHU216HW,2013-04-09 04:44:00,
2013-04-09 00:59:00,40.0,30.3,30.18,North,0,0.0,0.0,68,0.00,,,0.00,WUHU216HW,2013-04-09 04:59:00,
2013-04-09 01:14:00,39.6,29.9,30.18,North,0,0.0,0.0,68,0.00,,,0.00,WUHU216HW,2013-04-09 05:14:00,
2013-04-09 01:29:00,40.0,30.3,30.17,North,0,0.0,0.0,68,0.00,,,0.00,WUHU216HW,2013-04-09 05:29:00,
2013-04-09 01:44:00,40.0,31.0,30.16,NW,314,0.6,1.1,70,0.00,,,0.00,WUHU216HW,2013-04-09 05:44:00,
2013-04-09 01:59:00,40.0,31.3,30.15,WNW,303,1.1,1.8,71,0.00,,,0.00,WUHU216HW,2013-04-09 05:59:00,
2013-04-09 02:14:00,39.8,32.1,30.14,WNW,301,1.3,2.0,74,0.00,,,0.00,WUHU216HW,2013-04-09 06:14:00,
2013-04-09 02:29:00,39.2,32.0,30.12,NE,55,0.6,1.1,75,0.00,,,0.00,WUHU216HW,2013-04-09 06:29:00,
2013-04-09 02:44:00,39.2,32.7,30.11,NW,305,1.3,2.2,77,0.00,,,0.00,WUHU216HW,2013-04-09 06:44:00,
2013-04-09 02:59:00,39.2,32.9,30.12,NW,311,0.8,1.6,78,0.00,,,0.00,WUHU216HW,2013-04-09 06:59:00,
2013-04-09 03:14:00,39.1,33.1,30.13,NNW,329,0.8,1.8,79,0.00,,,0.00,WUHU216HW,2013-04-09 07:14:00,
2013-04-09 03:29:00,39.1,33.1,30.14,NW,323,0.9,1.8,79,0.00,,,0.00,WUHU216HW,2013-04-09 07:29:00,
2013-04-09 03:44:00,38.9,33.3,30.14,NNW,339,0.6,0.9,80,0.00,,,0.00,WUHU216HW,2013-04-09 07:44:00,
2013-04-09 03:59:00,38.7,33.1,30.11,North,0,0.0,0.0,80,0.00,,,0.00,WUHU216HW,2013-04-09 07:59:00,
2013-04-09 04:14:00,38.7,33.7,30.12,NW,322,0.7,1.1,82,0.00,,,0.00,WUHU216HW,2013-04-09 08:14:00,
2013-04-09 04:29:00,38.7,33.7,30.13,WNW,284,0.6,1.1,82,0.00,,,0.00,WUHU216HW,2013-04-09 08:29:00,
2013-04-09 04:44:00,38.9,34.2,30.09,NW,306,1.2,1.8,83,0.00,,,0.00,WUHU216HW,2013-04-09 08:44:00,
2013-04-09 04:59:00,38.9,34.2,30.09,NW,306,1.3,2.5,83,0.00,,,0.00,WUHU216HW,2013-04-09 08:59:00,
2013-04-09 05:14:00,38.7,34.6,30.09,NW,310,1.1,3.1,85,0.00,,,0.00,WUHU216HW,2013-04-09 09:14:00,
2013-04-09 05:29:00,38.7,34.3,30.10,WNW,291,1.2,3.1,84,0.00,,,0.00,WUHU216HW,2013-04-09 09:29:00,
2013-04-09 05:44:00,38.7,34.6,30.07,NW,310,0.8,1.3,85,0.00,,,0.00,WUHU216HW,2013-04-09 09:44:00,
2013-04-09 05:59:00,38.9,34.7,30.07,West,281,0.7,1.3,85,0.00,,,0.00,WUHU216HW,2013-04-09 09:59:00,
2013-04-09 06:14:00,38.9,34.7,30.07,NW,305,1.0,2.2,85,0.00,,,0.00,WUHU216HW,2013-04-09 10:14:00,
2013-04-09 06:29:00,38.9,35.0,30.06,NW,320,0.6,0.9,86,0.00,,,0.00,WUHU216HW,2013-04-09 10:29:00,
2013-04-09 06:44:00,38.9,35.0,30.06,North,0,0.0,0.0,86,0.00,,,0.00,WUHU216HW,2013-04-09 10:44:00,
2013-04-09 06:59:00,38.9,35.0,30.07,North,0,0.4,0.4,86,0.00,,,0.00,WUHU216HW,2013-04-09 10:59:00,
2013-04-09 07:14:00,38.9,35.0,30.06,NW,308,0.9,1.8,86,0.00,,,0.00,WUHU216HW,2013-04-09 11:14:00,
2013-04-09 07:29:00,39.1,35.5,30.06,WNW,303,1.1,2.5,87,0.00,,,0.00,WUHU216HW,2013-04-09 11:29:00,
2013-04-09 07:44:00,38.9,35.3,30.05,NW,320,0.6,1.1,87,0.00,,,0.00,WUHU216HW,2013-04-09 11:44:00,
2013-04-09 07:59:00,39.1,35.5,30.04,NW,315,0.5,0.7,87,0.00,,,0.00,WUHU216HW,2013-04-09 11:59:00,
2013-04-09 08:14:00,39.1,35.5,30.03,WNW,300,0.9,1.8,87,0.00,,,0.00,WUHU216HW,2013-04-09 12:14:00,
2013-04-09 08:29:00,39.2,35.6,30.02,ESE,118,0.4,0.4,87,0.00,,,0.00,WUHU216HW,2013-04-09 12:29:00,
2013-04-09 08:45:00,39.2,35.6,30.01,North,356,0.5,0.9,87,0.00,,,0.00,WUHU216HW,2013-04-09 12:45:00,
2013-04-09 09:00:00,39.6,36.0,30.00,North,0,0.0,0.0,87,0.00,,,0.00,WUHU216HW,2013-04-09 13:00:00,
2013-04-09 09:15:00,39.8,36.2,30.01,ESE,120,0.2,0.2,87,0.00,,,0.00,WUHU216HW,2013-04-09 13:15:00,
2013-04-09 09:30:00,40.0,36.6,30.00,SE,135,0.4,0.7,88,0.00,,,0.00,WUHU216HW,2013-04-09 13:30:00,
2013-04-09 09:45:00,40.0,36.6,30.00,South,172,0.5,0.9,88,0.00,,,0.00,WUHU216HW,2013-04-09 13:45:00,
2013-04-09 10:00:00,40.0,36.6,30.01,SSW,207,0.4,0.4,88,0.00,,,0.00,WUHU216HW,2013-04-09 14:00:00,
2013-04-09 10:15:00,40.1,36.8,30.00,South,177,0.3,0.4,88,0.00,,,0.00,WUHU216HW,2013-04-09 14:15:00,
2013-04-09 10:30:00,40.3,37.0,30.00,SSW,202,0.3,0.7,88,0.00,,,0.00,WUHU216HW,2013-04-09 14:30:00,
2013-04-09 10:45:00,40.7,37.7,30.00,SSW,200,0.5,1.1,89,0.00,,,0.00,WUHU216HW,2013-04-09 14:45:00,
2013-04-09 11:00:00,41.0,38.1,30.00,South,177,0.6,1.3,89,0.00,,,0.00,WUHU216HW,2013-04-09 15:00:00,
2013-04-09 11:15:00,41.0,38.1,29.99,SSW,195,0.6,1.8,89,0.00,,,0.00,WUHU216HW,2013-04-09 15:15:00,
2013-04-09 11:30:00,41.9,39.0,29.99,SSW,206,0.9,2.0,89,0.00,,,0.00,WUHU216HW,2013-04-09 15:30:00,
2013-04-09 11:45:00,41.9,39.0,29.99,SSW,194,0.7,1.3,89,0.00,,,0.00,WUHU216HW,2013-04-09 15:45:00,
2013-04-09 12:00:00,42.1,39.2,30.00,SSW,204,0.9,2.0,89,0.00,,,0.00,WUHU216HW,2013-04-09 16:00:00,
2013-04-09 12:15:00,41.9,39.0,29.99,SSW,192,0.8,1.6,89,0.00,,,0.00,WUHU216HW,2013-04-09 16:15:00,
2013-04-09 12:30:00,42.1,39.2,29.98,ENE,76,0.4,0.7,89,0.00,,,0.00,WUHU216HW,2013-04-09 16:30:00,
2013-04-09 12:45:00,42.1,39.2,29.98,WNW,296,1.2,2.9,89,0.00,,,0.00,WUHU216HW,2013-04-09 16:45:00,
2013-04-09 13:00:00,42.1,39.2,29.99,West,281,0.7,1.8,89,0.00,,,0.00,WUHU216HW,2013-04-09 17:00:00,
2013-04-09 13:15:00,42.1,39.4,29.99,WSW,239,1.0,2.5,90,0.00,,,0.00,WUHU216HW,2013-04-09 17:15:00,
2013-04-09 13:30:00,42.1,39.4,29.99,West,271,1.0,3.6,90,0.00,,,0.00,WUHU216HW,2013-04-09 17:30:00,
2013-04-09 13:45:00,42.3,39.6,29.99,North,355,0.7,2.5,90,0.00,,,0.00,WUHU216HW,2013-04-09 17:45:00,
2013-04-09 14:00:00,42.8,40.1,29.99,NNW,333,0.8,1.8,90,0.00,,,0.00,WUHU216HW,2013-04-09 18:00:00,
2013-04-09 14:15:00,43.6,41.1,29.99,WNW,301,0.8,3.8,91,0.00,,,0.00,WUHU216HW,2013-04-09 18:15:00,
2013-04-09 14:30:00,44.6,42.2,29.99,East,95,1.2,2.9,91,0.00,,,0.00,WUHU216HW,2013-04-09 18:30:00,
2013-04-09 14:45:00,45.5,43.4,29.99,North,354,0.7,1.6,92,0.00,,,0.00,WUHU216HW,2013-04-09 18:45:00,
2013-04-09 15:00:00,46.4,44.3,30.00,WNW,287,1.3,3.4,92,0.00,,,0.00,WUHU216HW,2013-04-09 19:00:00,
2013-04-09 15:15:00,46.8,44.6,29.99,ENE,70,1.5,4.0,92,0.00,,,0.00,WUHU216HW,2013-04-09 19:15:00,
2013-04-09 15:30:00,47.2,44.2,29.99,ENE,63,1.7,4.7,89,0.00,,,0.00,WUHU216HW,2013-04-09 19:30:00,
2013-04-09 15:45:00,48.2,44.3,29.99,SE,138,2.1,4.7,86,0.00,,,0.00,WUHU216HW,2013-04-09 19:45:00,
2013-04-09 16:00:00,49.1,44.1,30.01,SSW,210,2.2,5.4,83,0.00,,,0.00,WUHU216HW,2013-04-09 20:00:00,
2013-04-09 16:15:00,49.7,43.7,30.01,SSW,210,2.3,5.4,80,0.00,,,0.00,WUHU216HW,2013-04-09 20:15:00,
2013-04-09 16:31:00,49.7,43.0,30.02,SSW,207,3.0,6.5,78,0.00,,,0.00,WUHU216HW,2013-04-09 20:31:00,
2013-04-09 16:46:00,49.3,42.0,30.02,SSW,206,2.9,7.2,76,0.00,,,0.00,WUHU216HW,2013-04-09 20:46:00,
2013-04-09 17:01:00,49.0,41.7,30.02,WSW,240,2.6,6.3,76,0.00,,,0.00,WUHU216HW,2013-04-09 21:01:00,
2013-04-09 17:16:00,48.6,41.3,30.01,SSW,194,2.3,5.4,76,0.00,,,0.00,WUHU216HW,2013-04-09 21:16:00,
2013-04-09 17:31:00,48.1,40.8,30.03,NW,320,1.8,4.7,76,0.00,,,0.00,WUHU216HW,2013-04-09 21:31:00,
2013-04-09 17:46:00,47.5,40.6,30.05,ESE,118,1.2,3.4,77,0.00,,,0.00,WUHU216HW,2013-04-09 21:46:00,
2013-04-09 18:01:00,47.2,40.7,30.06,ENE,69,1.0,2.7,78,0.00,,,0.00,WUHU216HW,2013-04-09 22:01:00,
2013-04-09 18:16:00,46.6,39.8,30.08,NW,324,0.8,1.8,77,0.00,,,0.00,WUHU216HW,2013-04-09 22:16:00,
2013-04-09 18:31:00,46.4,39.7,30.07,South,187,0.9,2.5,77,0.00,,,0.00,WUHU216HW,2013-04-09 22:31:00,
2013-04-09 18:46:00,46.1,39.6,30.07,WNW,287,1.2,2.7,78,0.00,,,0.00,WUHU216HW,2013-04-09 22:46:00,
2013-04-09 19:01:00,45.2,39.4,30.08,NW,311,1.2,1.8,80,0.00,,,0.00,WUHU216HW,2013-04-09 23:01:00,
2013-04-09 19:16:00,44.3,38.8,30.08,NW,306,1.1,2.0,81,0.00,,,0.00,WUHU216HW,2013-04-09 23:16:00,
2013-04-09 19:31:00,43.6,38.1,30.08,NW,317,0.7,1.1,81,0.00,,,0.00,WUHU216HW,2013-04-09 23:31:00,
2013-04-09 19:46:00,43.0,37.9,30.09,NW,325,0.6,0.9,82,0.00,,,0.00,WUHU216HW,2013-04-09 23:46:00,
2013-04-09 20:02:00,42.5,37.6,30.09,NW,315,0.8,1.3,83,0.00,,,0.00,WUHU216HW,2013-04-10 00:02:00,
2013-04-09 20:17:00,41.8,36.6,30.09,NNW,330,0.6,1.1,82,0.00,,,0.00,WUHU216HW,2013-04-10 00:17:00,
2013-04-09 20:32:00,41.0,36.2,30.09,NW,304,0.7,1.3,83,0.00,,,0.00,WUHU216HW,2013-04-10 00:32:00,
2013-04-09 20:47:00,40.5,35.7,30.10,WNW,293,1.3,2.0,83,0.00,,,0.00,WUHU216HW,2013-04-10 00:47:00,
2013-04-09 21:02:00,40.0,35.5,30.11,North,0,0.0,0.0,84,0.00,,,0.00,WUHU216HW,2013-04-10 01:02:00,
2013-04-09 21:17:00,39.6,35.2,30.11,WNW,297,1.1,1.8,84,0.00,,,0.00,WUHU216HW,2013-04-10 01:17:00,
2013-04-09 21:32:00,39.2,34.8,30.10,NE,45,0.5,1.1,84,0.00,,,0.00,WUHU216HW,2013-04-10 01:32:00,
2013-04-09 21:47:00,38.9,34.7,30.11,NE,45,0.7,0.9,85,0.00,,,0.00,WUHU216HW,2013-04-10 01:47:00,
2013-04-09 22:02:00,38.7,34.8,30.10,North,0,0.4,0.7,86,0.00,,,0.00,WUHU216HW,2013-04-10 02:02:00,
2013-04-09 22:17:00,38.5,34.7,30.09,NW,324,0.9,1.8,86,0.00,,,0.00,WUHU216HW,2013-04-10 02:17:00,
2013-04-09 22:32:00,38.5,34.9,30.09,North,0,0.6,0.7,87,0.00,,,0.00,WUHU216HW,2013-04-10 02:32:00,
2013-04-09 22:47:00,38.3,34.7,30.08,WNW,300,1.1,2.2,87,0.00,,,0.00,WUHU216HW,2013-04-10 02:47:00,
2013-04-09 23:02:00,38.5,34.9,30.08,NW,315,0.7,0.9,87,0.00,,,0.00,WUHU216HW,2013-04-10 03:02:00,
2013-04-09 23:17:00,38.3,34.7,30.08,North,0,0.3,0.4,87,0.00,,,0.00,WUHU216HW,2013-04-10 03:17:00,
2013-04-09 23:32:00,38.5,35.3,30.06,NW,316,0.6,1.1,88,0.00,,,0.00,WUHU216HW,2013-04-10 03:32:00,
2013-04-09 23:47:00,38.3,35.1,30.05,NW,315,0.2,0.2,88,0.00,,,0.00,WUHU216HW,2013-04-10 03:47:00,